When you browse on this site, cookies collect data to enhance your experience and personalize the content and advertising you see.
Visit our Privacy Policy to learn more. By continuing to use the site, you agree to this use of cookies and data.
  • In Lithuania
  • List of Countries
  • For 7 days
  • Water Temperature
  • Satellite Maps
  • Weather Map
  • Weather Widgets
  • user-avatar
    Login

    Hourly Weather Barinas

    Today, 25 April, Thursday

    Time Temperature Precipitation Wind Pressure Humidity
    00:00 +26°C° 1 mm 1 mps 743 mmHg 72%
    01:00 +26°C° 0 mm 1 mps 743 mmHg 72%
    02:00 +26°C° 0.9 mm 1 mps 743 mmHg 74%
    03:00 +26°C° 0.9 mm 1 mps 743 mmHg 75%
    04:00 +24°C° 0.9 mm 0 mps 743 mmHg 76%
    05:00 +26°C° 1.2 mm 1 mps 743 mmHg 77%
    06:00 +26°C° 1.2 mm 1 mps 743 mmHg 78%
    07:00 +27°C° 0 mm 1 mps 744 mmHg 80%
    08:00 +28°C° 0.8 mm 1 mps 744 mmHg 74%
    09:00 +30°C° 0.8 mm 2 mps 744 mmHg 69%
    10:00 +31°C° 0.8 mm 2 mps 744 mmHg 63%
    11:00 +32°C° 1.5 mm 2 mps 744 mmHg 60%
    12:00 +34°C° 1.5 mm 2 mps 743 mmHg 58%
    13:00 +35°C° 1.5 mm 2 mps 743 mmHg 55%
    14:00 +34°C° 2.2 mm 2 mps 743 mmHg 61%
    15:00 +33°C° 2.2 mm 3 mps 742 mmHg 66%
    16:00 +30°C° 2.2 mm 3 mps 742 mmHg 72%
    17:00 +29°C° 1.3 mm 3 mps 742 mmHg 75%
    18:00 +28°C° 1.3 mm 2 mps 743 mmHg 78%
    19:00 +27°C° 1.3 mm 2 mps 743 mmHg 82%
    20:00 +27°C° 0.3 mm 1 mps 743 mmHg 80%
    21:00 +27°C° 0.3 mm 1 mps 744 mmHg 78%
    22:00 +27°C° 0.3 mm 1 mps 744 mmHg 77%
    23:00 +27°C° 0.4 mm 1 mps 744 mmHg 76%

    Tomorrow, 26 April, Friday

    Time Temperature Precipitation Wind Pressure Humidity
    00:00 +27°C° 0.4 mm 1 mps 744 mmHg 74%
    01:00 +26°C° 0.4 mm 1 mps 743 mmHg 73%
    02:00 +24°C° 0.7 mm 0 mps 743 mmHg 75%
    03:00 +24°C° 0.7 mm 0 mps 743 mmHg 76%
    04:00 +24°C° 0.7 mm 0 mps 743 mmHg 77%
    05:00 +24°C° 1 mm 0 mps 744 mmHg 77%
    06:00 +24°C° 1 mm 0 mps 744 mmHg 77%
    07:00 +24°C° 1 mm 0 mps 744 mmHg 77%
    08:00 +26°C° 0.8 mm 0 mps 744 mmHg 74%
    09:00 +29°C° 0.8 mm 1 mps 745 mmHg 70%
    10:00 +30°C° 0.8 mm 2 mps 745 mmHg 66%
    11:00 +31°C° 1.3 mm 2 mps 744 mmHg 64%
    12:00 +32°C° 1.3 mm 2 mps 743 mmHg 62%
    13:00 +34°C° 1.3 mm 2 mps 743 mmHg 59%
    14:00 +32°C° 1.5 mm 2 mps 742 mmHg 62%
    15:00 +32°C° 1.5 mm 2 mps 742 mmHg 64%
    16:00 +31°C° 1.5 mm 2 mps 741 mmHg 67%
    17:00 +30°C° 0 mm 2 mps 741 mmHg 70%
    18:00 +29°C° 0 mm 2 mps 742 mmHg 73%
    19:00 +28°C° 0 mm 1 mps 742 mmHg 76%
    20:00 +28°C° 0 mm 1 mps 743 mmHg 76%
    21:00 +28°C° 0 mm 1 mps 743 mmHg 76%
    22:00 +27°C° 0 mm 1 mps 744 mmHg 75%
    23:00 +27°C° 0.5 mm 1 mps 743 mmHg 75%

    Day after tomorrow, 27 April, Saturday

    Time Temperature Precipitation Wind Pressure Humidity
    00:00 +27°C° 0.5 mm 1 mps 743 mmHg 74%
    01:00 +26°C° 0.5 mm 2 mps 742 mmHg 74%
    02:00 +26°C° 0.2 mm 1 mps 742 mmHg 72%
    03:00 +26°C° 0.2 mm 1 mps 742 mmHg 71%
    04:00 +26°C° 0.2 mm 1 mps 742 mmHg 69%
    05:00 +27°C° 0.8 mm 1 mps 743 mmHg 68%
    06:00 +28°C° 0.8 mm 1 mps 743 mmHg 67%
    07:00 +28°C° 0.8 mm 1 mps 744 mmHg 67%
    08:00 +29°C° 1.3 mm 1 mps 744 mmHg 65%
    09:00 +31°C° 1.3 mm 1 mps 744 mmHg 64%
    10:00 +32°C° 1.3 mm 1 mps 744 mmHg 63%
    11:00 +32°C° 2.4 mm 2 mps 744 mmHg 64%
    12:00 +33°C° 2.4 mm 3 mps 743 mmHg 66%
    13:00 +33°C° 2.4 mm 3 mps 742 mmHg 68%
    14:00 +31°C° 1.5 mm 3 mps 742 mmHg 70%
    15:00 +30°C° 1.5 mm 2 mps 741 mmHg 72%
    16:00 +30°C° 1.5 mm 2 mps 741 mmHg 75%
    17:00 +29°C° 0.2 mm 1 mps 741 mmHg 76%
    18:00 +28°C° 0.2 mm 1 mps 741 mmHg 78%
    19:00 +28°C° 0.2 mm 1 mps 742 mmHg 79%
    20:00 +28°C° 0 mm 1 mps 742 mmHg 77%
    21:00 +27°C° 0 mm 1 mps 743 mmHg 74%
    22:00 +27°C° 0 mm 1 mps 743 mmHg 72%
    23:00 +27°C° 0.3 mm 1 mps 743 mmHg 70%

    28 April, Sunday

    Time Temperature Precipitation Wind Pressure Humidity
    00:00 +27°C° 0.3 mm 2 mps 742 mmHg 67%
    01:00 +26°C° 0.3 mm 2 mps 742 mmHg 64%
    02:00 +26°C° 0.1 mm 2 mps 742 mmHg 64%
    03:00 +26°C° 0.1 mm 2 mps 742 mmHg 64%
    04:00 +26°C° 0.1 mm 2 mps 742 mmHg 64%
    05:00 +27°C° 0 mm 1 mps 742 mmHg 63%
    06:00 +28°C° 0 mm 1 mps 743 mmHg 63%
    07:00 +28°C° 0 mm 1 mps 744 mmHg 62%
    08:00 +30°C° 0 mm 1 mps 744 mmHg 59%
    09:00 +31°C° 0 mm 2 mps 744 mmHg 57%
    10:00 +34°C° 0 mm 2 mps 745 mmHg 54%
    11:00 +34°C° 0.4 mm 2 mps 744 mmHg 53%
    12:00 +35°C° 0.4 mm 3 mps 743 mmHg 52%
    13:00 +35°C° 0.4 mm 3 mps 742 mmHg 51%
    14:00 +35°C° 0 mm 2 mps 742 mmHg 51%
    15:00 +35°C° 0 mm 2 mps 741 mmHg 52%
    16:00 +35°C° 0 mm 2 mps 741 mmHg 52%
    17:00 +32°C° 0 mm 2 mps 741 mmHg 56%
    18:00 +31°C° 0 mm 2 mps 741 mmHg 59%
    19:00 +29°C° 0 mm 2 mps 742 mmHg 63%
    20:00 +29°C° 0 mm 2 mps 742 mmHg 58%
    21:00 +28°C° 0 mm 2 mps 743 mmHg 54%
    22:00 +28°C° 0 mm 2 mps 743 mmHg 49%
    23:00 +28°C° 0 mm 2 mps 743 mmHg 47%

    29 April, Monday

    Time Temperature Precipitation Wind Pressure Humidity
    00:00 +28°C° 0 mm 2 mps 742 mmHg 44%
    01:00 +27°C° 0 mm 3 mps 742 mmHg 41%
    02:00 +28°C° 0 mm 3 mps 742 mmHg 41%
    03:00 +28°C° 0 mm 3 mps 742 mmHg 42%
    04:00 +28°C° 0 mm 3 mps 742 mmHg 42%
    05:00 +28°C° 0 mm 2 mps 743 mmHg 46%
    06:00 +29°C° 0 mm 2 mps 743 mmHg 49%
    07:00 +29°C° 0 mm 2 mps 744 mmHg 53%
    08:00 +30°C° 0 mm 2 mps 744 mmHg 51%
    09:00 +32°C° 0 mm 2 mps 744 mmHg 49%
    10:00 +35°C° 0 mm 3 mps 744 mmHg 47%
    11:00 +35°C° 0 mm 3 mps 744 mmHg 46%
    12:00 +36°C° 0 mm 2 mps 743 mmHg 44%
    13:00 +37°C° 0 mm 2 mps 742 mmHg 43%
    14:00 +36°C° 0 mm 2 mps 742 mmHg 44%
    15:00 +36°C° 0 mm 2 mps 741 mmHg 45%
    16:00 +36°C° 0 mm 2 mps 741 mmHg 46%
    17:00 +34°C° 0 mm 2 mps 741 mmHg 47%
    18:00 +31°C° 0 mm 2 mps 741 mmHg 48%
    19:00 +29°C° 0 mm 2 mps 742 mmHg 50%
    20:00 +29°C° 0 mm 2 mps 742 mmHg 45%
    21:00 +29°C° 0 mm 2 mps 743 mmHg 39%
    22:00 +28°C° 0 mm 3 mps 743 mmHg 34%
    23:00 +28°C° 0 mm 3 mps 743 mmHg 36%

    30 April, Tuesday

    Time Temperature Precipitation Wind Pressure Humidity
    00:00 +28°C° 0 mm 3 mps 743 mmHg 39%
    01:00 +28°C° 0 mm 3 mps 742 mmHg 42%
    02:00 +28°C° 0.1 mm 3 mps 742 mmHg 45%
    03:00 +28°C° 0.1 mm 3 mps 742 mmHg 49%
    04:00 +28°C° 0.1 mm 3 mps 742 mmHg 53%
    05:00 +28°C° 0 mm 2 mps 743 mmHg 55%
    06:00 +29°C° 0 mm 2 mps 744 mmHg 57%
    07:00 +29°C° 0 mm 2 mps 744 mmHg 59%
    08:00 +31°C° 0 mm 2 mps 744 mmHg 55%
    09:00 +32°C° 0 mm 2 mps 744 mmHg 51%
    10:00 +35°C° 0 mm 2 mps 745 mmHg 47%
    11:00 +35°C° 0 mm 2 mps 744 mmHg 45%
    12:00 +36°C° 0 mm 2 mps 743 mmHg 44%
    13:00 +36°C° 0 mm 2 mps 742 mmHg 42%
    14:00 +36°C° 0 mm 2 mps 742 mmHg 43%
    15:00 +36°C° 0 mm 2 mps 741 mmHg 43%
    16:00 +36°C° 0 mm 2 mps 741 mmHg 44%
    17:00 +34°C° 0 mm 2 mps 741 mmHg 45%
    18:00 +32°C° 0 mm 2 mps 742 mmHg 46%
    19:00 +30°C° 0 mm 2 mps 743 mmHg 47%
    20:00 +30°C° 0 mm 3 mps 743 mmHg 41%
    21:00 +29°C° 0 mm 3 mps 743 mmHg 35%
    22:00 +29°C° 0 mm 3 mps 744 mmHg 28%
    23:00 +29°C° 0 mm 3 mps 743 mmHg 31%
    Show more